FLOCK 3K-2 (43895 NORAD) Tracking and Keplerian Element Data

This shows tracking and keplerian element data for the satellite.

Feedback or suggestion? Click here.




ElementValue
Catalog43895
NameFLOCK 3K-2
Epoch Orbit315
Epoch Day16.77191232
Epoch Year2019
RAAN286.1078
Inclination97.2997
Eccentricity0.0024746
Argument of Perigee171.6715
Mean Anonmoly188.4938
Mean Motion15.23492559
Decay Rate6E-06
L11 43895U 18111V 19016.77191232 .00000600 00000-0 27882-4 0 9997
L22 43895 97.2997 286.1078 0024746 171.6715 188.4938 15.23492559 3152

Live tracking and technical data element details for FLOCK 3K-2 (NORAD 43895). FLOCK 3K-2 can be tracked NOW for your location showing map with azimuth and elevation plus other details from your city location.

Track the satellite on the map from your city or location and see movement details for azimuth, elevation, latitude, longitude, range, height, and movement on the map or in text.







IsCatalogInMostPopularTable: catalog: 43895, numindb: 17
Update: records affected: 1



GetName: 43895 FLOCK 3K-2

Hit Count: updated at: Thu, 17 Jan 2019 16:15:04 GMT